Milledgeville, GA

7:28 AM EDT on August 23, 2017 (GMT -0400)
Baldwin County

Weather History for KMLJ - July, 2013

Change the Weather History Date:

Friday, July 26, 2013

  Actual Average (KOKZ) Record (KOKZ)
Temperature  
Mean Temperature 84 °F -  
Max Temperature 91 °F 90 °F 98 °F (2016)
Min Temperature 75 °F 70 °F 66 °F (2015)
Cooling Degree Days 19    
Growing Degree Days 34 (Base 50)    
Moisture  
Dew Point 69 °F    
Average Humidity 66    
Maximum Humidity 89    
Minimum Humidity 38    
Precipitation  
Precipitation 0.00 in - - ()
Sea Level Pressure  
Sea Level Pressure 30.01 in    
Wind  
Wind Speed 1 mph (East)    
Max Wind Speed 8 mph    
Max Gust Speed -    
Visibility 10 miles    
Events Rain , Thunderstorm    
Averages and records for this station are not official NWS values.
T = Trace of Precipitation, MM = Missing Value Source: NWS Daily Summary

Daily Weather History Graph

Daily Weather History Graph

Search for Another Location

Airport or City:

Trip Planner

Search our weather history database for the weather conditions in past years. The results will help you decide how hot, cold, wet, or windy it might be!

Date:

Astronomy

Jul. 26, 2013 Rise Set
Actual Time 6:42 AM EDT 8:36 PM EDT
Civil Twilight 6:14 AM EDT 9:03 PM EDT
Nautical Twilight 5:41 AM EDT 9:36 PM EDT
Astronomical Twilight 5:06 AM EDT 10:12 PM EDT
Moon 11:09 PM EDT (7/26) 10:59 AM EDT (7/26)
Length of Visible Light 14h 49m
Length of Day
13h 54m
Waning Gibbous, 80% of the Moon is Illuminated
Jul 26
Waning Gibbous
Jul 29
Last Quarter
Aug 6
New
Aug 14
First Quarter
Aug 20
Full

Hourly Weather History & Observations

Time (EDT) Temp. Heat Index Dew Point Humidity Pressure Visibility Wind Dir Wind Speed Gust Speed Precip Events Conditions
12:15 AM 77.0 °F - 73.4 °F 89% 30.00 in 10.0 mi Calm Calm - N/A   Mostly Cloudy
12:35 AM 77.0 °F - 73.4 °F 89% 29.99 in 10.0 mi Calm Calm - N/A   Scattered Clouds
12:55 AM 77.0 °F - 73.4 °F 89% 29.99 in 10.0 mi Calm Calm - N/A   Clear
1:15 AM 77.0 °F - 73.4 °F 89% 29.99 in 10.0 mi Calm Calm - N/A   Scattered Clouds
1:35 AM 77.0 °F - 73.4 °F 89% 29.99 in 10.0 mi Calm Calm - N/A   Clear
1:55 AM 77.0 °F - 71.6 °F 83% 29.98 in 10.0 mi Calm Calm - N/A   Scattered Clouds
2:15 AM 77.0 °F - 73.4 °F 89% 29.98 in 10.0 mi Calm Calm - N/A   Mostly Cloudy
2:35 AM 77.0 °F - 73.4 °F 89% 29.99 in 10.0 mi Calm Calm - N/A   Scattered Clouds
2:55 AM 77.0 °F - 71.6 °F 83% 29.99 in 10.0 mi Calm Calm - N/A   Scattered Clouds
3:15 AM 78.8 °F - 71.6 °F 78% 29.98 in 10.0 mi East 4.6 mph - N/A   Clear
3:35 AM 78.8 °F - 71.6 °F 78% 29.99 in 10.0 mi East 4.6 mph - N/A   Clear
3:55 AM 78.8 °F - 71.6 °F 78% 29.99 in 10.0 mi East 4.6 mph - N/A   Clear
4:15 AM 78.8 °F - 71.6 °F 78% 29.99 in 10.0 mi East 3.5 mph - N/A   Clear
4:35 AM 77.0 °F - 71.6 °F 83% 29.99 in 10.0 mi Calm Calm - N/A   Clear
4:55 AM 77.0 °F - 71.6 °F 83% 29.99 in 10.0 mi Calm Calm - N/A   Clear
5:15 AM 77.0 °F - 71.6 °F 83% 30.00 in 10.0 mi Calm Calm - N/A   Clear
5:35 AM 77.0 °F - 71.6 °F 83% 30.00 in 10.0 mi Calm Calm - N/A   Clear
5:55 AM 77.0 °F - 71.6 °F 83% 30.00 in 10.0 mi Calm Calm - N/A   Clear
6:15 AM 77.0 °F - 71.6 °F 83% 30.01 in 10.0 mi Calm Calm - N/A   Clear
6:35 AM 77.0 °F - 71.6 °F 83% 30.02 in 10.0 mi East 3.5 mph - N/A   Clear
6:55 AM 77.0 °F - 71.6 °F 83% 30.03 in 10.0 mi Calm Calm - N/A   Clear
7:15 AM 77.0 °F - 71.6 °F 83% 30.03 in 7.0 mi Calm Calm - N/A   Clear
7:35 AM 77.0 °F - 71.6 °F 83% 30.03 in 10.0 mi Calm Calm - N/A   Clear
7:55 AM 77.0 °F - 71.6 °F 83% 30.04 in 7.0 mi ESE 3.5 mph - N/A   Clear
8:15 AM 78.8 °F - 71.6 °F 78% 30.04 in 10.0 mi Calm Calm - N/A   Clear
8:35 AM 78.8 °F - 71.6 °F 78% 30.05 in 10.0 mi Calm Calm - N/A   Clear
8:55 AM 78.8 °F - 71.6 °F 78% 30.05 in 10.0 mi Calm Calm - N/A   Clear
9:15 AM 80.6 °F 84.6 °F 71.6 °F 74% 30.06 in 10.0 mi Calm Calm - N/A   Clear
9:35 AM 80.6 °F 84.6 °F 71.6 °F 74% 30.06 in 10.0 mi Calm Calm - N/A   Clear
9:55 AM 82.4 °F 87.2 °F 71.6 °F 70% 30.06 in 10.0 mi Calm Calm - N/A   Clear
10:15 AM 82.4 °F 85.4 °F 68.0 °F 62% 30.07 in 10.0 mi Calm Calm - N/A   Scattered Clouds
10:35 AM 82.4 °F 85.4 °F 68.0 °F 62% 30.07 in 10.0 mi Calm Calm - N/A   Scattered Clouds
10:55 AM 86.0 °F 89.4 °F 68.0 °F 55% 30.06 in 10.0 mi Calm Calm - N/A   Mostly Cloudy
11:15 AM 86.0 °F 88.2 °F 66.2 °F 51% 30.06 in 10.0 mi Calm Calm - N/A   Mostly Cloudy
11:35 AM 86.0 °F 88.2 °F 66.2 °F 51% 30.06 in 10.0 mi SE 4.6 mph - N/A   Mostly Cloudy
11:55 AM 86.0 °F 89.4 °F 68.0 °F 55% 30.07 in 10.0 mi Calm Calm - N/A   Scattered Clouds
12:15 PM 87.8 °F 91.4 °F 68.0 °F 52% 30.06 in 10.0 mi SSW 3.5 mph - N/A   Scattered Clouds
12:35 PM 87.8 °F 89.4 °F 64.4 °F 46% 30.06 in 10.0 mi Calm Calm - N/A   Scattered Clouds
12:55 PM 87.8 °F 90.4 °F 66.2 °F 49% 30.05 in 10.0 mi Calm Calm - N/A   Scattered Clouds
1:15 PM 89.6 °F 91.1 °F 64.4 °F 43% 30.04 in 10.0 mi SSE 3.5 mph - N/A   Scattered Clouds
1:35 PM 89.6 °F 91.1 °F 64.4 °F 43% 30.04 in 10.0 mi Calm Calm - N/A   Scattered Clouds
1:55 PM 89.6 °F 90.1 °F 62.6 °F 40% 30.03 in 10.0 mi Calm Calm - N/A   Scattered Clouds
2:15 PM 89.6 °F 90.1 °F 62.6 °F 40% 30.02 in 10.0 mi Calm Calm - N/A   Scattered Clouds
2:35 PM 89.6 °F 90.1 °F 62.6 °F 40% 30.02 in 10.0 mi Calm Calm - N/A   Scattered Clouds
2:55 PM 89.6 °F 90.1 °F 62.6 °F 40% 30.02 in 10.0 mi Calm Calm - N/A   Scattered Clouds
3:15 PM 89.6 °F 90.1 °F 62.6 °F 40% 30.01 in 10.0 mi Calm Calm - N/A   Scattered Clouds
3:35 PM 89.6 °F 90.1 °F 62.6 °F 40% 30.00 in 10.0 mi Calm Calm - N/A   Scattered Clouds
3:55 PM 91.4 °F 92.1 °F 62.6 °F 38% 29.99 in 10.0 mi Calm Calm - N/A   Clear
4:15 PM 89.6 °F 89.5 °F 60.8 °F 38% 30.00 in 10.0 mi Calm Calm - N/A Thunderstorm Clear
4:35 PM 87.8 °F 89.4 °F 64.4 °F 46% 29.98 in 10.0 mi Calm Calm - N/A   Scattered Clouds
4:55 PM 86.0 °F 88.2 °F 66.2 °F 51% 29.98 in 10.0 mi Calm Calm - N/A   Scattered Clouds
5:15 PM 89.6 °F 90.1 °F 62.6 °F 40% 29.99 in 10.0 mi Calm Calm - N/A   Clear
5:35 PM 87.8 °F 90.4 °F 66.2 °F 49% 29.99 in 10.0 mi Calm Calm - N/A   Scattered Clouds
5:55 PM 89.6 °F 92.2 °F 66.2 °F 46% 29.98 in 10.0 mi Calm Calm - N/A   Scattered Clouds
6:15 PM 87.8 °F 91.4 °F 68.0 °F 52% 29.98 in 10.0 mi Calm Calm - N/A Thunderstorm Scattered Clouds
6:35 PM 84.2 °F 87.3 °F 68.0 °F 58% 29.98 in 10.0 mi West 3.5 mph - N/A Thunderstorm Mostly Cloudy
6:55 PM 84.2 °F 87.3 °F 68.0 °F 58% 29.99 in 1.8 mi NW 3.5 mph - N/A Thunderstorm Unknown
7:15 PM 82.4 °F 84.6 °F 66.2 °F 58% 29.99 in 10.0 mi Calm Calm - N/A Thunderstorm Thunderstorm
7:35 PM 82.4 °F 84.6 °F 66.2 °F 58% 29.99 in 10.0 mi NNE 3.5 mph - N/A   Scattered Clouds
7:55 PM 82.4 °F 85.4 °F 68.0 °F 62% 29.99 in 10.0 mi NE 4.6 mph - N/A Thunderstorm Thunderstorm
8:15 PM 80.6 °F 83.2 °F 68.0 °F 65% 29.98 in 10.0 mi Calm Calm - N/A Thunderstorm Clear
8:35 PM 80.6 °F 83.9 °F 69.8 °F 70% 29.99 in 10.0 mi Calm Calm - N/A Thunderstorm Clear
8:55 PM 80.6 °F 83.9 °F 69.8 °F 70% 29.99 in 10.0 mi Calm Calm - N/A Thunderstorm Clear
9:15 PM 80.6 °F 83.2 °F 68.0 °F 65% 30.01 in 10.0 mi East 8.1 mph - N/A Thunderstorm Thunderstorm
9:35 PM 78.8 °F - 68.0 °F 69% 30.01 in 10.0 mi East 3.5 mph - N/A Thunderstorm Clear
9:55 PM 78.8 °F - 68.0 °F 69% 30.01 in 10.0 mi East 5.8 mph - N/A   Scattered Clouds
10:15 PM 78.8 °F - 68.0 °F 69% 30.02 in 10.0 mi East 4.6 mph - N/A   Scattered Clouds
10:35 PM 78.8 °F - 68.0 °F 69% 30.03 in 10.0 mi East 4.6 mph - N/A Thunderstorm Scattered Clouds
10:55 PM 78.8 °F - 68.0 °F 69% 30.03 in 10.0 mi Calm Calm - N/A Thunderstorm Mostly Cloudy
11:15 PM 78.8 °F - 68.0 °F 69% 30.03 in 10.0 mi ESE 3.5 mph - N/A Rain Rain
11:35 PM 77.0 °F - 71.6 °F 83% 30.03 in 10.0 mi East 5.8 mph - N/A Rain Light Rain
11:55 PM 75.2 °F - 71.6 °F 89% 30.02 in 10.0 mi Calm Calm - N/A   Mostly Cloudy